User: anonymous   Login
Location: Oshawa
(43.9000°N, 78.8670°W)
Time: 21:16:00
(UTC-04:00)
Language:

Envisat - Orbit

View from above orbital plane
View from above orbital plane
View from above satellite
View from above satellite

Ground track
Ground track

The orbit data is extracted from the following two-line orbital elements,

1 27386U 02009A   15144.14771831  .00000120  00000-0  53926-4 0  9996
2 27386 098.3368 205.2965 0001120 072.2728 287.8573 14.37816292692578
Epoch (UTC): 24 May 2015 03:32:42
Eccentricity: 0.0001120
inclination: 98.3368°
perigee height: 765 km
apogee height: 766 km
right ascension of ascending node: 205.2965°
argument of perigee: 72.2728°
revolutions per day: 14.37816292
mean anomaly at epoch: 287.8573°
orbit number at epoch: 69257

The dashed part of the orbit path shows where the satellite is in the earth's shadow,  

DLR